This demonstration page uses our WeatherBlox Daily Observations layout. Learn more.

Left ArrowRight Arrow

Hourly Observations for April 15, 2016

Temp ( °F °C ) Dew Point ( °F °C ) Humidity (%) Winds ( mph kmh ) Pressure ( in mb ) Visibility ( mi km ) Precip ( " mm )
12:53 am 00:53 Clear 49 9.4 36 2.2 61 61 Calm 30.11 1020 10 16 0.00 0.00
1:53 am 01:53 Clear 42 5.6 37 2.8 82 82 N 3 6 30.13 1020 10 16 0.00 0.00
2:53 am 02:53 Clear 43 6.1 36 2.2 76 76 NNE 5 7 30.14 1021 10 16 0.00 0.00
3:53 am 03:53 Clear 42 5.6 37 2.8 82 82 NNE 5 7 30.14 1021 10 16 0.00 0.00
4:53 am 04:53 Clear 43 6.1 37 2.8 80 80 N 7 11 30.15 1021 10 16 0.00 0.00
5:53 am 05:53 Clear 42 5.6 37 2.8 82 82 VRB 3 6 30.16 1022 10 16 0.00 0.00
6:53 am 06:53 Sunny 45 7.2 37 2.8 74 74 NW 8 13 30.19 1022 10 16 0.00 0.00
7:53 am 07:53 Sunny 50 10 38 3.3 63 63 NW 7 11 30.19 1022 10 16 0.00 0.00
8:53 am 08:53 Sunny 56 13.3 37 2.8 49 49 N 14 22 30.20 1023 10 16 0.00 0.00
9:53 am 09:53 Sunny 59 15 34 1.1 39 39 N 13 20 30.21 1023 10 16 0.00 0.00
10:53 am 10:53 Sunny 62 16.7 34 1.1 35 35 NNW 9 15 30.21 1023 10 16 0.00 0.00
11:53 am 11:53 Sunny 66 18.9 33 0.6 29 29 N 12 19 30.19 1023 10 16 0.00 0.00
12:53 pm 12:53 Sunny 68 20 34 1.1 28 28 NNE 10 17 30.17 1022 10 16 0.00 0.00
1:53 pm 13:53 Sunny 70 21.1 33 0.6 26 26 N 9 15 30.16 1021 10 16 0.00 0.00
2:53 pm 14:53 Sunny 72 22.2 35 1.7 26 26 N 13 20 30.14 1021 10 16 0.00 0.00
3:53 pm 15:53 Sunny 73 22.8 32 0 22 22 VRB 7 11 30.13 1020 10 16 0.00 0.00
4:53 pm 16:53 Sunny 74 23.3 32 0 21 21 NNW 8 13 30.11 1020 10 16 0.00 0.00
5:53 pm 17:53 Sunny 75 23.9 32 0 21 21 N 13 20 30.10 1019 10 16 0.00 0.00
6:53 pm 18:53 Sunny 74 23.3 33 0.6 22 22 N 8 13 30.10 1019 10 16 0.00 0.00
7:53 pm 19:53 Clear 69 20.6 36 2.2 30 30 N 3 6 30.11 1020 10 16 0.00 0.00
8:53 pm 20:53 Clear 66 18.9 36 2.2 33 33 NNW 7 11 30.14 1021 10 16 0.00 0.00
9:53 pm 21:53 Clear 63 17.2 38 3.3 40 40 N 6 9 30.16 1021 10 16 0.00 0.00
10:53 pm 22:53 Clear 58 14.4 40 4.4 51 51 N 3 6 30.17 1022 10 16 0.00 0.00
11:53 pm 23:53 Clear 55 12.8 42 5.6 62 62 N 5 7 30.17 1022 10 16 0.00 0.00

Powered by AerisWeather